Location: College Park
(38.9810°N, 76.9370°W)
Time: 22:26:04

Hubble Space Telescope - Pass Details

Date: 04 January 2018
Orbit: 537 x 541 km, 28.5° (Epoch: 21 March)

Event Time Altitude Azimuth Distance (km) Brightness Sun altitude
Exits shadow 06:41:55 - 242° (WSW) 2,694 4.0 -8.7°
Rises 06:41:58 0° 242° (WSW) 2,676 3.9 -8.7°
Reaches altitude 10° 06:44:44 10° 224° (SW) 1,784 3.2 -8.2°
Maximum altitude 06:47:40 19° 179° (S) 1,316 3.1 -7.7°
Drops below altitude 10° 06:50:36 10° 133° (SE) 1,783 4.8 -7.2°
Sets 06:53:21 0° 115° (ESE) 2,673 7.1 -6.7°
